Location: Campestrin
(46.4667°N, 11.7167°E)
Time: 17:06:27
(UTC+00:00)

Cosmos 1356 - Pass Details

Date: 18 April 2021
Orbit: 439 x 441 km, 81.1° (Epoch: 06 May)

Event Time Altitude Azimuth Distance (km) Brightness Sun altitude
Rises 19:25:37 0° 354° (N) 2,447 7.7 -13.4°
Reaches altitude 10° 19:27:45 10° 360° (N) 1,571 6.6 -13.7°
Maximum altitude 19:31:05 48° 76° (ENE) 591 3.7 -14.2°
Enters shadow 19:32:29 29° 134° (SE) 850 4.2 -14.4°
